• In Latvia
  • List of Countries
  • For 7 days
  • Water Temperature
  • Satellite Maps
  • Weather Map
  • Weather Widgets
  • user-avatar
    Login

    Hourly Weather Cyklady

    Today, 18 February, Sunday

    Time Temperature Precipitation Wind Pressure Humidity
    00:00 +4°C° 0 mm 1 mps 685 mmHg 90%
    01:00 +4°C° 0 mm 1 mps 685 mmHg 90%
    02:00 +4°C° 0 mm 1 mps 685 mmHg 90%
    03:00 +4°C° 0 mm 1 mps 685 mmHg 89%
    04:00 +4°C° 0 mm 1 mps 685 mmHg 89%
    05:00 +4°C° 0 mm 1 mps 685 mmHg 88%
    06:00 +4°C° 0 mm 1 mps 684 mmHg 87%
    07:00 +4°C° 0 mm 1 mps 684 mmHg 86%
    08:00 +6°C° 0 mm 1 mps 685 mmHg 78%
    09:00 +8°C° 0 mm 1 mps 685 mmHg 70%
    10:00 +10°C° 0 mm 1 mps 685 mmHg 62%
    11:00 +11°C° 0 mm 1 mps 685 mmHg 59%
    12:00 +11°C° 0 mm 1 mps 685 mmHg 57%
    13:00 +12°C° 0 mm 2 mps 685 mmHg 54%
    14:00 +10°C° 0 mm 2 mps 684 mmHg 59%
    15:00 +10°C° 0 mm 2 mps 684 mmHg 65%
    16:00 +9°C° 0 mm 2 mps 684 mmHg 70%
    17:00 +9°C° 0 mm 1 mps 683 mmHg 76%
    18:00 +8°C° 0 mm 1 mps 683 mmHg 82%
    19:00 +7°C° 0 mm 1 mps 683 mmHg 88%
    20:00 +7°C° 0 mm 1 mps 683 mmHg 89%
    21:00 +6°C° 0 mm 1 mps 683 mmHg 89%
    22:00 +5°C° 0 mm 0 mps 683 mmHg 90%
    23:00 +5°C° 0 mm 0 mps 682 mmHg 91%

    Tomorrow, 19 February, Monday

    Time Temperature Precipitation Wind Pressure Humidity
    00:00 +5°C° 0 mm 0 mps 682 mmHg 91%
    01:00 +5°C° 0 mm 0 mps 682 mmHg 91%
    02:00 +5°C° 0 mm 0 mps 682 mmHg 92%
    03:00 +5°C° 0 mm 1 mps 681 mmHg 93%
    04:00 +5°C° 0 mm 1 mps 681 mmHg 94%
    05:00 +5°C° 0 mm 1 mps 681 mmHg 93%
    06:00 +5°C° 0 mm 1 mps 681 mmHg 93%
    07:00 +5°C° 0 mm 1 mps 681 mmHg 93%
    08:00 +7°C° 0 mm 1 mps 681 mmHg 84%
    09:00 +8°C° 0 mm 1 mps 682 mmHg 74%
    10:00 +10°C° 0 mm 1 mps 682 mmHg 65%
    11:00 +9°C° 0.2 mm 2 mps 682 mmHg 65%
    12:00 +9°C° 0.2 mm 2 mps 682 mmHg 65%
    13:00 +9°C° 0.2 mm 2 mps 681 mmHg 64%
    14:00 +8°C° 0.9 mm 2 mps 681 mmHg 73%
    15:00 +7°C° 0.9 mm 2 mps 681 mmHg 82%
    16:00 +6°C° 0.9 mm 2 mps 680 mmHg 91%
    17:00 +6°C° 1.1 mm 2 mps 680 mmHg 92%
    18:00 +6°C° 1.1 mm 2 mps 681 mmHg 93%
    19:00 +5°C° 1.1 mm 2 mps 681 mmHg 94%
    20:00 +5°C° 1 mm 2 mps 681 mmHg 94%
    21:00 +5°C° 1 mm 2 mps 681 mmHg 95%
    22:00 +5°C° 1 mm 2 mps 681 mmHg 95%
    23:00 +5°C° 0.6 mm 2 mps 681 mmHg 94%

    Day after tomorrow, 20 February, Tuesday

    Time Temperature Precipitation Wind Pressure Humidity
    00:00 +5°C° 0.6 mm 2 mps 681 mmHg 94%
    01:00 +5°C° 0.6 mm 2 mps 680 mmHg 94%
    02:00 +5°C° 0.3 mm 2 mps 680 mmHg 94%
    03:00 +5°C° 0.3 mm 2 mps 680 mmHg 94%
    04:00 +4°C° 0.3 mm 2 mps 680 mmHg 94%
    05:00 +4°C° 0.2 mm 2 mps 680 mmHg 94%
    06:00 +4°C° 0.2 mm 2 mps 680 mmHg 94%
    07:00 +4°C° 0.2 mm 2 mps 680 mmHg 94%
    08:00 +6°C° 0.2 mm 2 mps 680 mmHg 90%
    09:00 +7°C° 0.2 mm 2 mps 681 mmHg 85%
    10:00 +8°C° 0.2 mm 2 mps 681 mmHg 80%
    11:00 +8°C° 0.2 mm 2 mps 681 mmHg 79%
    12:00 +9°C° 0.2 mm 3 mps 680 mmHg 77%
    13:00 +9°C° 0.2 mm 3 mps 680 mmHg 76%
    14:00 +9°C° 0.6 mm 3 mps 680 mmHg 79%
    15:00 +8°C° 0.6 mm 2 mps 679 mmHg 82%
    16:00 +8°C° 0.6 mm 2 mps 679 mmHg 86%
    17:00 +7°C° 0.5 mm 2 mps 679 mmHg 88%
    18:00 +6°C° 0.5 mm 2 mps 679 mmHg 91%
    19:00 +6°C° 0.5 mm 2 mps 679 mmHg 94%
    20:00 +5°C° 0.2 mm 2 mps 679 mmHg 94%
    21:00 +5°C° 0.2 mm 2 mps 679 mmHg 94%
    22:00 +5°C° 0.2 mm 2 mps 679 mmHg 94%
    23:00 +5°C° 0.1 mm 2 mps 678 mmHg 95%

    21 February, Wednesday

    Time Temperature Precipitation Wind Pressure Humidity
    00:00 +5°C° 0.1 mm 2 mps 678 mmHg 95%
    01:00 +4°C° 0.1 mm 2 mps 678 mmHg 95%
    02:00 +4°C° 0.1 mm 2 mps 677 mmHg 95%
    03:00 +4°C° 0.1 mm 2 mps 677 mmHg 94%
    04:00 +4°C° 0.1 mm 2 mps 677 mmHg 94%
    05:00 +4°C° 0.1 mm 2 mps 677 mmHg 94%
    06:00 +4°C° 0.1 mm 2 mps 676 mmHg 94%
    07:00 +4°C° 0.1 mm 2 mps 676 mmHg 93%
    08:00 +6°C° 0.2 mm 2 mps 676 mmHg 89%
    09:00 +7°C° 0.2 mm 2 mps 677 mmHg 86%
    10:00 +8°C° 0.2 mm 2 mps 677 mmHg 82%
    11:00 +8°C° 0.3 mm 2 mps 676 mmHg 79%
    12:00 +9°C° 0.3 mm 2 mps 676 mmHg 75%
    13:00 +10°C° 0.3 mm 3 mps 676 mmHg 72%
    14:00 +9°C° 0.1 mm 3 mps 675 mmHg 74%
    15:00 +9°C° 0.1 mm 3 mps 675 mmHg 75%
    16:00 +9°C° 0.1 mm 3 mps 675 mmHg 76%
    17:00 +8°C° 0.2 mm 3 mps 675 mmHg 81%
    18:00 +7°C° 0.2 mm 3 mps 674 mmHg 86%
    19:00 +4°C° 0.2 mm 3 mps 674 mmHg 91%
    20:00 +4°C° 0.1 mm 3 mps 674 mmHg 91%
    21:00 +4°C° 0.1 mm 3 mps 674 mmHg 91%
    22:00 +3°C° 0.1 mm 3 mps 674 mmHg 91%
    23:00 +3°C° 0.1 mm 3 mps 674 mmHg 91%

    22 February, Thursday

    Time Temperature Precipitation Wind Pressure Humidity
    00:00 +3°C° 0.1 mm 3 mps 674 mmHg 91%
    01:00 +3°C° 0.1 mm 3 mps 674 mmHg 91%
    02:00 +3°C° 0.1 mm 3 mps 674 mmHg 91%
    03:00 +4°C° 0.1 mm 2 mps 674 mmHg 90%
    04:00 +4°C° 0.1 mm 2 mps 674 mmHg 90%
    05:00 +4°C° 0.1 mm 2 mps 674 mmHg 89%
    06:00 +4°C° 0.1 mm 2 mps 674 mmHg 88%
    07:00 +5°C° 0.1 mm 1 mps 674 mmHg 87%
    08:00 +7°C° 0 mm 1 mps 675 mmHg 80%
    09:00 +10°C° 0 mm 1 mps 675 mmHg 72%
    10:00 +12°C° 0 mm 1 mps 676 mmHg 65%
    11:00 +12°C° 0.1 mm 1 mps 676 mmHg 66%
    12:00 +12°C° 0.1 mm 2 mps 676 mmHg 66%
    13:00 +12°C° 0.1 mm 2 mps 675 mmHg 66%
    14:00 +12°C° 0.1 mm 2 mps 675 mmHg 68%
    15:00 +10°C° 0.1 mm 2 mps 675 mmHg 71%
    16:00 +9°C° 0.1 mm 2 mps 675 mmHg 73%
    17:00 +8°C° 0 mm 2 mps 676 mmHg 79%
    18:00 +8°C° 0 mm 1 mps 676 mmHg 85%
    19:00 +6°C° 0 mm 1 mps 676 mmHg 91%
    20:00 +6°C° 0 mm 1 mps 676 mmHg 90%
    21:00 +6°C° 0 mm 1 mps 676 mmHg 90%
    22:00 +6°C° 0 mm 1 mps 676 mmHg 90%
    23:00 +6°C° 0 mm 1 mps 676 mmHg 88%

    23 February, Friday

    Time Temperature Precipitation Wind Pressure Humidity
    00:00 +6°C° 0 mm 1 mps 676 mmHg 87%
    01:00 +5°C° 0 mm 1 mps 676 mmHg 86%
    02:00 +5°C° 0 mm 1 mps 676 mmHg 86%
    03:00 +5°C° 0 mm 1 mps 676 mmHg 85%
    04:00 +3°C° 0 mm 2 mps 676 mmHg 85%
    05:00 +4°C° 0 mm 2 mps 676 mmHg 84%
    06:00 +4°C° 0 mm 2 mps 676 mmHg 82%
    07:00 +4°C° 0 mm 2 mps 676 mmHg 80%
    08:00 +5°C° 0 mm 3 mps 676 mmHg 71%
    09:00 +7°C° 0 mm 4 mps 677 mmHg 62%
    10:00 +10°C° 0 mm 4 mps 677 mmHg 53%
    11:00 +9°C° 0.2 mm 5 mps 677 mmHg 57%
    12:00 +9°C° 0.2 mm 5 mps 676 mmHg 61%
    13:00 +9°C° 0.2 mm 5 mps 676 mmHg 65%
    14:00 +8°C° 0.6 mm 5 mps 676 mmHg 72%
    15:00 +8°C° 0.6 mm 6 mps 675 mmHg 78%
    16:00 +7°C° 0.6 mm 6 mps 675 mmHg 85%
    17:00 +6°C° 0.3 mm 5 mps 675 mmHg 87%
    18:00 +6°C° 0.3 mm 5 mps 675 mmHg 90%
    19:00 +5°C° 0.3 mm 4 mps 675 mmHg 92%
    20:00 +5°C° 0.1 mm 4 mps 676 mmHg 92%
    21:00 +5°C° 0.1 mm 4 mps 676 mmHg 92%
    22:00 +4°C° 0.1 mm 4 mps 676 mmHg 92%
    23:00 +4°C° 0.1 mm 4 mps 676 mmHg 92%
    Show more